X Fechar
foto
Salvar nos Favoritos

X Fechar
foto
Clique e saiba mais
Clique e saiba mais
Clique e saiba mais
Clique e saiba mais
Clique e saiba mais
Clique e saiba mais

Edgers Racing

KTM Sacramento

Toro Sports

SP Race Park

JPS Racing

MotoX Pneus

Arenafama

Clique e saiba mais

> Notícias > Últimas Notícias

Mundial de Motocross: Destaques, vídeo e resultados do MXGP da Bélgica
Publicado em: 04/08/2019

Tim Gajser vence pela primeira vez em Lommel
Redação MotoX.com.br - Fotos: Youthstream

Jorge Prado segue imbatível na MX2. Brasileiro Gustavo Pessoa volta a pontuar na competição


Tim Gajser

Teoricamente a pesada pista de areia de Lommel, palco neste domingo do MXGP da Bélgica, 14ª etapa do Mundial de Motocross, não é um circuito favorável ao líder do campeonato Tim Gajser (Team HRC). Mesmo assim, contrariando as expectativas, o esloveno superou os especialistas no terreno com a regularidade: segundo na duas baterias, Gajser faturou o GP com um ponto de vantagem sobre Romain Febvre (1-4). Glenn Coldenhoff (3-3) foi ao pódio pela primeira vez na temporada com a terceira colocação.

Vencedor da classificatória de sábado, Max Anstie caiu forte logo na primeira curva da primeira bateria e abandonou a disputa. Gajser liderou a volta inicial, mas na segunda Febvre assumiu o comando da prova ditando o ritmo até bandeirada. O esloveno se manteve em segundo com Coldenhoff também desde o início em terceiro, poucos segundos atrás. Os suiços Jeremy Seewer e Arnaud Tonus brigaram até o final terminando em quarto e quinto, respectivamente.

Na segunda bateria, Gajser liderou as primeiras voltas até ser ultrapassado por Anstie. O britânico abriu vantagem, mas caiu no terço final da corrida e se viu novamente em segundo. Apesar do tropeço, Anstie retomou o ritmo e recuperou definitivamente a primeira posição poucas voltas depois. Gajser completou em segundo, garantindo a primeira vitória da sua carreira em Lommel, com Coldenhoff, Febvre e Seewer na sequência.  

Tim Gajser: "Foi um ótimo final de semana, terminando em dois-dois para a primeira colocação geral em Lommel. Minha pilotagem foi boa, especialmente porque no passado me esforcei muito aqui, mas trabalhamos duro com a equipe este ano e realmente valeu a pena. Nós nos preparamos muito melhor para essas condições difíceis e as duas boas largadas ajudaram. Não consegui ganhar uma bateria, mas pilotei suavemente e com inteligência minimizando os erros. Estou muito feliz por vencer aqui em Lommel, porque é um GP especial, um bom teste, e mostra o quanto progredi como piloto".


Jorge Prado

A MX2 teve mais um domínio absoluto de Jorge Prado (Red Bull KTM Factory Racing) que venceu as duas baterias de ponta a ponta. Especialista em areia, o espanhol rodou sempre bem abaixo dos rivais administrando as provas sem dificuldade. Na primeira corrida, o belga Jago Geerts fez a festa da torcida com uma recuperação espetacular depois de cair na curva 1. O piloto da casa avançou até a segunda posição superando Tom Vialle na fase final. O francês também foi ultrapassado pelo britânico Adam Sterry e terminou na quarta posição. Ben Watson foi o quinto colocado.

Vialle começou a última bateria na segunda posição novamente, mas Geerts dessa vez conseguiu a vice-liderança mais rapidamente. No entanto, com três voltas para a bandeirada, o belga abandonou com problemas mecânicos. Calvin Vlaanderen terminou em segundo seguido por Ben Watson, Vialle e Thomas Kjer Olsen que não competou a bateria anterior após uma queda.

Jorge Prado: "Normalmente é uma corrida dura mesmo tendo um bom ritmo por toda a prova. Estava gostando e mentalmente preparado para isso. A primeira corrida foi boa, a pista é bruta e você precisa ter energia para a segunda bateria. Na segunda fiz mais um holeshot. Tinha mais de 30 segundos de vantagem,tentei ampliar, mas caí na última volta, por sorte me levantei rapidamente."

Gustavo Pessoa voltou a pontuar no Mundial de Motocross após um intevalo de seis GPs. O brasileiro foi o 22º colocado na primeira bateria, ficando fora da zona de pontução por pouco. Mas, com a 19ª colocação na segunda bateria, o paulista somou mais 2 pontos na competição - ele ocupa o 32º lugar na classificação geral do campeonato.

Vídeo:



Resultados

P # MXGP Bat 1 País Bike Time V Diff Gap M.V. Speed
1 461 Febvre, Romain FRA Yam 34:40.884 16 0:00.000 0:00.000 2:00.198 56.3
2 243 Gajser, Tim SLO Hon 34:47.498 16 0:06.614 0:06.614 2:01.035 55.9
3 259 Coldenhoff, Glenn NED KTM 34:49.879 16 0:08.995 0:02.381 2:01.348 55.7
4 91 Seewer, Jeremy SUI Yam 34:53.158 16 0:12.274 0:03.279 2:01.670 55.6
5 4 Tonus, Arnaud SUI Yam 34:57.208 16 0:16.324 0:04.050 2:01.989 55.4
6 89 Van Horebeek, Jeremy BEL Hon 35:03.468 16 0:22.584 0:06.260 2:02.218 55.3
7 41 Jonass, Pauls LAT Hus 35:09.651 16 0:28.767 0:06.183 2:01.793 55.5
8 27 Jasikonis, Arminas LTU Hus 35:19.535 16 0:38.651 0:09.884 2:02.003 55.4
9 21 Paulin, Gautier FRA Yam 35:46.894 16 1:06.010 0:27.359 2:02.472 55.2
10 911 Tixier, Jordi FRA KTM 35:54.582 16 1:13.698 0:07.688 2:03.591 54.7
11 128 Monticelli, Ivo ITA KTM 36:05.677 16 1:24.793 0:11.095 2:05.113 54
12 24 Simpson, Shaun GBR KTM 36:08.242 16 1:27.358 0:02.565 2:03.534 54.7
13 22 Strijbos, Kevin BEL Yam 36:10.657 16 1:29.773 0:02.415 2:04.099 54.5
14 7 Leok, Tanel EST Hus 36:13.251 16 1:32.367 0:02.594 2:07.258 53.1
15 189 Bogers, Brian NED Hon 36:13.363 16 1:32.479 0:00.112 2:05.584 53.8
16 212 Dewulf, Jeffrey BEL KTM 36:16.024 16 1:35.140 0:02.661 2:05.797 53.8
17 18 Brylyakov, Vsevolod RUS Yam 36:43.173 16 2:02.289 0:27.149 2:07.265 53.1
18 107 van Berkel, Lars NED Hus 36:49.227 16 2:08.343 0:06.054 2:08.645 52.6
19 226 Koch, Tom GER KTM 36:54.302 16 2:13.418 0:05.075 2:06.235 53.6
20 34 De Waal, Micha-Boy NED Yam 35:45.141 15 1 lap 1 lap 2:07.939 52.9
21 238 Platt, Lukas GER Kaw 36:24.432 15 1 lap 0:39.291 2:08.858 52.5
22 595 Grobben, Cedric BEL KTM 36:28.771 15 1 lap 0:04.339 2:10.233 51.9
23 853 Dekker, Nino NED KTM 36:41.502 15 1 lap 0:12.731 2:12.473 51
24 23 Aussems, Menno NED Hon 35:31.899 14 2 laps 1 lap 2:17.162 49.3
25 191 Rannikko, Rene FIN Hus 35:49.493 14 2 laps 0:17.594 2:16.878 49.4
26 93 Bengtsson, Jonathan SWE KTM 19:44.874 8 8 laps 6 laps 2:10.653 51.8
27 152 Petrov, Petar BUL KTM 10:42.298 4 12 laps 4 laps 2:08.653 52.6
28 99 Anstie, Max GBR KTM 0:00.000 -1 17 laps 5 laps 0:00.000 0

P # MXGP Bat 2 País Bike Time V Diff Gap M.V. Speed
1 99 Anstie, Max GBR KTM 34:30.638 16 0:00.000 0:00.000 1:58.862 56.9
2 243 Gajser, Tim SLO Hon 34:35.759 16 0:05.121 0:05.121 1:58.893 56.9
3 259 Coldenhoff, Glenn NED KTM 34:42.110 16 0:11.472 0:06.351 2:01.645 55.6
4 461 Febvre, Romain FRA Yam 34:53.541 16 0:22.903 0:11.431 2:01.712 55.6
5 91 Seewer, Jeremy SUI Yam 35:04.585 16 0:33.947 0:11.044 2:01.441 55.7
6 27 Jasikonis, Arminas LTU Hus 35:09.151 16 0:38.513 0:04.566 2:00.683 56
7 89 Van Horebeek, Jeremy BEL Hon 35:27.099 16 0:56.461 0:17.948 2:00.708 56
8 128 Monticelli, Ivo ITA KTM 35:44.593 16 1:13.955 0:17.494 2:04.613 54.3
9 189 Bogers, Brian NED Hon 35:51.861 16 1:21.223 0:07.268 2:04.564 54.3
10 21 Paulin, Gautier FRA Yam 35:54.165 16 1:23.527 0:02.304 2:05.453 53.9
11 41 Jonass, Pauls LAT Hus 35:56.147 16 1:25.509 0:01.982 2:02.118 55.4
12 212 Dewulf, Jeffrey BEL KTM 36:15.743 16 1:45.105 0:19.596 2:05.216 54
13 911 Tixier, Jordi FRA KTM 36:21.934 16 1:51.296 0:06.191 2:05.161 54
14 4 Tonus, Arnaud SUI Yam 36:29.457 16 1:58.819 0:07.523 2:03.645 54.7
15 7 Leok, Tanel EST Hus 36:32.482 16 2:01.844 0:03.025 2:07.996 52.8
16 34 De Waal, Micha-Boy NED Yam 36:35.875 16 2:05.237 0:03.393 2:07.374 53.1
17 226 Koch, Tom GER KTM 36:40.183 16 2:09.545 0:04.308 2:07.600 53
18 107 van Berkel, Lars NED Hus 36:52.374 16 2:21.736 0:12.191 2:06.649 53.4
19 22 Strijbos, Kevin BEL Yam 34:37.481 15 1 lap 1 lap 2:09.759 52.1
20 24 Simpson, Shaun GBR KTM 34:59.743 15 1 lap 0:22.262 2:05.257 54
21 595 Grobben, Cedric BEL KTM 36:27.615 15 1 lap 1:27.872 2:11.545 51.4
22 238 Platt, Lukas GER Kaw 36:27.753 15 1 lap 0:00.138 2:10.299 51.9
23 853 Dekker, Nino NED KTM 35:05.671 14 2 laps 1 lap 2:13.924 50.5
24 23 Aussems, Menno NED Hon 35:23.058 14 2 laps 0:17.387 2:17.426 49.2
25 191 Rannikko, Rene FIN Hus 36:59.486 14 2 laps 1:36.428 2:14.834 50.1
26 18 Brylyakov, Vsevolod RUS Yam 16:18.956 6 10 laps 8 laps 2:09.136 52.4
27 93 Bengtsson, Jonathan SWE KTM 10:35.969 4 12 laps 2 laps 2:12.166 51.2

P # MXGP soma das baterias Bike Bat 1 Bat 2 Total
1 243 Gajser, Tim HON 22 22 44
2 461 Febvre, Romain YAM 25 18 43
3 259 Coldenhoff, Glenn KTM 20 20 40
4 91 Seewer, Jeremy YAM 18 16 34
5 89 Van Horebeek, Jeremy HON 15 14 29
6 27 Jasikonis, Arminas HUS 13 15 28
7 99 Anstie, Max KTM 0 25 25
8 41 Jonass, Pauls HUS 14 10 24
9 128 Monticelli, Ivo KTM 10 13 23
10 21 Paulin, Gautier YAM 12 11 23
11 4 Tonus, Arnaud YAM 16 7 23
12 911 Tixier, Jordi KTM 11 8 19
13 189 Bogers, Brian HON 6 12 18
14 212 Dewulf, Jeffrey KTM 5 9 14
15 7 Leok, Tanel HUS 7 6 13
16 22 Strijbos, Kevin YAM 8 2 10
17 24 Simpson, Shaun KTM 9 1 10
18 34 De Waal, Micha-Boy YAM 1 5 6
19 226 Koch, Tom KTM 2 4 6
20 107 van Berkel, Lars HUS 3 3 6
21 18 Brylyakov, Vsevolod YAM 4 0 4
22 595 Grobben, Cedric KTM 0 0 0
23 238 Platt, Lukas KAW 0 0 0
24 853 Dekker, Nino KTM 0 0 0
25 23 Aussems, Menno HON 0 0 0
26 191 Rannikko, Rene HUS 0 0 0
27 93 Bengtsson, Jonathan KTM 0 0 0
28 152 Petrov, Petar KTM 0 0 0

P # MX2 Bat 1 País Bike Time V Diff Gap M.V. Speed
1 61 Prado, Jorge ESP KTM 34:54.715 16 0:00.000 0:00.000 1:59.030 56.8
2 193 Geerts, Jago BEL Yam 35:14.770 16 0:20.055 0:20.055 2:01.135 55.8
3 811 Sterry, Adam GBR Kaw 35:22.522 16 0:27.807 0:07.752 2:02.279 55.3
4 28 Vialle, Tom FRA KTM 35:29.253 16 0:34.538 0:06.731 2:01.574 55.6
5 919 Watson, Ben GBR Yam 35:31.730 16 0:37.015 0:02.477 2:03.255 54.9
6 959 Renaux, Maxime FRA Yam 35:44.725 16 0:50.010 0:12.995 2:04.144 54.5
7 10 Vlaanderen, Calvin NED Hon 35:58.171 16 1:03.456 0:13.446 2:04.665 54.2
8 29 Jacobi, Henry GER Kaw 36:24.244 16 1:29.529 0:26.073 2:04.974 54.1
9 161 Östlund, Alvin SWE Hus 36:35.834 16 1:41.119 0:11.590 2:07.644 53
10 57 Sanayei, Darian USA Kaw 36:48.558 16 1:53.843 0:12.724 2:08.384 52.7
11 105 Genot, Cyril BEL KTM 36:51.084 16 1:56.369 0:02.526 2:06.964 53.3
12 35 Harrison, Mitchell USA Kaw 36:53.044 16 1:58.329 0:01.960 2:07.707 52.9
13 44 Lesiardo, Morgan ITA KTM 36:58.536 16 2:03.821 0:05.492 2:08.899 52.5
14 172 Boisrame, Mathys FRA Hon 35:19.632 15 1 lap 1 lap 2:07.835 52.9
15 766 Sandner, Michael AUT KTM 35:34.233 15 1 lap 0:14.601 2:10.139 52
16 66 Larranaga Olano, Iker ESP KTM 36:06.646 15 1 lap 0:32.413 2:10.881 51.7
17 102 Sikyna, Richard SVK KTM 36:10.194 15 1 lap 0:03.548 2:12.482 51
18 313 Polak, Petr CZE KTM 36:10.734 15 1 lap 0:00.540 2:14.058 50.4
19 332 Conijn, Marcel NED Kaw 36:27.100 15 1 lap 0:16.366 2:12.312 51.1
20 199 Griekspoor, Lars NED KTM 36:34.667 15 1 lap 0:07.567 2:13.574 50.6
21 275 Furbetta, Joakin ITA Hus 36:44.263 15 1 lap 0:09.596 2:09.596 52.2
22 56 Pessoa, Gustavo BRA Kaw 36:47.499 15 1 lap 0:03.236 2:13.654 50.6
23 818 Hauquier, Jeremy FRA KTM 36:54.778 15 1 lap 0:07.279 2:13.284 50.7
24 218 Van Mechelen, Joel NED Hus 36:59.346 15 1 lap 0:04.568 2:12.745 50.9
25 271 Gouwenberg, Koen NED Hon 37:08.984 15 1 lap 0:09.638 2:15.538 49.9
26 253 Pancar, Jan SLO Yam 33:48.279 14 2 laps 1 lap 2:12.655 51
27 331 Freidig, Loris SUI Yam 35:46.041 14 2 laps 1:57.762 2:16.897 49.4
28 67 Grimshaw, Tom GBR Yam 36:22.163 14 2 laps 0:36.122 2:18.715 48.7
29 225 Strubhart Moreau, Brian FRA Kaw 23:22.365 10 6 laps 4 laps 2:07.576 53
30 651 Tinkler-Walker, Kade CAN Hus 22:40.813 9 7 laps 1 lap 2:13.574 50.6
31 19 Olsen, Thomas Kjer DEN Hus 16:01.586 7 9 laps 2 laps 2:02.555 55.2
32 484 Carpenter, James GBR Hus 15:01.824 6 10 laps 1 lap 2:09.675 52.1
33 783 Toriani, Enzo FRA Hus 15:24.335 6 10 laps 0:22.511 2:12.668 51

P # MX2 Bat 2 País Bike Time V Diff Gap M.V. Speed
1 61 Prado, Jorge ESP KTM 34:57.670 16 0:00.000 0:00.000 1:59.391 56.6
2 10 Vlaanderen, Calvin NED Hon 35:15.221 16 0:17.551 0:17.551 2:00.635 56.1
3 919 Watson, Ben GBR Yam 35:32.928 16 0:35.258 0:17.707 2:01.141 55.8
4 28 Vialle, Tom FRA KTM 35:41.159 16 0:43.489 0:08.231 2:01.007 55.9
5 19 Olsen, Thomas Kjer DEN Hus 35:55.756 16 0:58.086 0:14.597 2:01.832 55.5
6 811 Sterry, Adam GBR Kaw 36:16.856 16 1:19.186 0:21.100 2:03.363 54.8
7 959 Renaux, Maxime FRA Yam 36:28.755 16 1:31.085 0:11.899 2:02.915 55
8 225 Strubhart Moreau, Brian FRA Kaw 36:32.595 16 1:34.925 0:03.840 2:06.759 53.3
9 105 Genot, Cyril BEL KTM 36:37.877 16 1:40.207 0:05.282 2:06.675 53.4
10 44 Lesiardo, Morgan ITA KTM 36:50.757 16 1:53.087 0:12.880 2:07.986 52.8
11 161 Östlund, Alvin SWE Hus 36:04.106 16 1:06.436 -1:13.349 2:06.252 53.6
12 29 Jacobi, Henry GER Kaw 37:03.263 16 2:05.593 0:59.157 2:05.274 54
13 35 Harrison, Mitchell USA Kaw 37:19.347 16 2:21.677 0:16.084 2:09.597 52.2
14 66 Larranaga Olano, Iker ESP KTM 35:14.296 15 1 lap 1 lap 2:10.294 51.9
15 172 Boisrame, Mathys FRA Hon 35:41.520 15 1 lap 0:27.224 2:05.904 53.7
16 766 Sandner, Michael AUT KTM 35:42.533 15 1 lap 0:01.013 2:11.935 51.2
17 57 Sanayei, Darian USA Kaw 35:44.676 15 1 lap 0:02.143 2:11.121 51.6
18 253 Pancar, Jan SLO Yam 35:45.725 15 1 lap 0:01.049 2:11.041 51.6
19 56 Pessoa, Gustavo BRA Kaw 36:02.264 15 1 lap 0:16.539 2:12.215 51.1
20 484 Carpenter, James GBR Hus 36:08.587 15 1 lap 0:06.323 2:11.035 51.6
21 331 Freidig, Loris SUI Yam 36:36.402 15 1 lap 0:27.815 2:15.727 49.8
22 199 Griekspoor, Lars NED KTM 36:44.561 15 1 lap 0:08.159 2:11.947 51.2
23 818 Hauquier, Jeremy FRA KTM 36:51.942 15 1 lap 0:07.381 2:12.844 50.9
24 271 Gouwenberg, Koen NED Hon 36:55.155 15 1 lap 0:03.213 2:16.347 49.6
25 332 Conijn, Marcel NED Kaw 37:09.056 15 1 lap 0:13.901 2:14.921 50.1
26 102 Sikyna, Richard SVK KTM 34:04.222 14 2 laps 1 lap 2:13.201 50.8
27 218 Van Mechelen, Joel NED Hus 34:58.602 14 2 laps 0:54.380 2:10.800 51.7
28 651 Tinkler-Walker, Kade CAN Hus 35:08.715 14 2 laps 0:10.113 2:14.087 50.4
29 193 Geerts, Jago BEL Yam 28:40.120 13 3 laps 1 lap 2:00.412 56.2
30 313 Polak, Petr CZE KTM 20:14.130 8 8 laps 5 laps 2:12.837 50.9
31 275 Furbetta, Joakin ITA Hus 15:00.678 6 10 laps 2 laps 2:08.843 52.5
32 67 Grimshaw, Tom GBR Yam 17:34.447 6 10 laps 2:33.769 2:16.631 49.5
33 783 Toriani, Enzo FRA Hus 0:00.000 -1 17 laps 7 laps 0:00.000 0

P # MX2 soma das baterias Bike Bat 1 Bat 2 Total
1 61 Prado, Jorge KTM 25 25 50
2 10 Vlaanderen, Calvin HON 14 22 36
3 919 Watson, Ben YAM 16 20 36
4 28 Vialle, Tom KTM 18 18 36
5 811 Sterry, Adam KAW 20 15 35
6 959 Renaux, Maxime YAM 15 14 29
7 105 Genot, Cyril KTM 10 12 22
8 161 Östlund, Alvin HUS 12 10 22
9 29 Jacobi, Henry KAW 13 9 22
10 193 Geerts, Jago YAM 22 0 22
11 44 Lesiardo, Morgan KTM 8 11 19
12 35 Harrison, Mitchell KAW 9 8 17
13 19 Olsen, Thomas Kjer HUS 0 16 16
14 57 Sanayei, Darian KAW 11 4 15
15 225 Strubhart Moreau, Brian KAW 0 13 13
16 172 Boisrame, Mathys HON 7 6 13
17 66 Larranaga Olano, Iker KTM 5 7 12
18 766 Sandner, Michael KTM 6 5 11
19 102 Sikyna, Richard KTM 4 0 4
20 253 Pancar, Jan YAM 0 3 3
21 313 Polak, Petr KTM 3 0 3
22 56 Pessoa, Gustavo KAW 0 2 2
23 332 Conijn, Marcel KAW 2 0 2
24 484 Carpenter, James HUS 0 1 1
25 199 Griekspoor, Lars KTM 1 0 1
26 331 Freidig, Loris YAM 0 0 0
27 818 Hauquier, Jeremy KTM 0 0 0
28 271 Gouwenberg, Koen HON 0 0 0
29 218 Van Mechelen, Joel HUS 0 0 0
30 651 Tinkler-Walker, Kade HUS 0 0 0
31 275 Furbetta, Joakin HUS 0 0 0
32 67 Grimshaw, Tom YAM 0 0 0
33 783 Toriani, Enzo HUS 0 0 0

Classificação geral do campeonato após 14 etapas:

P MXGP País Bike Pts
1 243 Gajser, Tim SLO HON 626
2 91 Seewer, Jeremy SUI YAM 439
3 21 Paulin, G. FRA YAM 402
4 4 Tonus, Arnaud SUI YAM 396
5 222 Cairoli, A. ITA KTM 358
6 27 Jasikonis, A. LTU HUS 355
7 259 Coldenhoff, G. NED KTM 349
8 461 Febvre, Romain FRA YAM 336
9 89 Van Horebeek, J. BEL HON 329
10 41 Jonass, Pauls LAT HUS 321
11 99 Anstie, Max GBR KTM 256
12 128 Monticelli, I. ITA KTM 212
13 25 Desalle, C. BEL KAW 208
14 33 Lieber, Julien BEL KAW 184
15 189 Bogers, Brian NED HON 183
16 24 Simpson, Shaun GBR KTM 156
17 7 Leok, Tanel EST HUS 155
18 100 Searle, Tommy GBR KAW 112
19 77 Lupino, A. ITA KAW 107
20 911 Tixier, Jordi FRA KTM 105

P MX2 País Bike Pts
1 61 Prado, Jorge ESP KTM 644
2 19 Olsen, T. DEN HUS 520
3 28 Vialle, Tom FRA KTM 416
4 193 Geerts, Jago BEL YAM 413
5 29 Jacobi, Henry GER KAW 399
6 811 Sterry, Adam GBR KAW 314
7 919 Watson, Ben GBR YAM 282
8 959 Renaux, Maxime FRA YAM 271
9 14 Beaton, Jed AUS HUS 250
10 10 Vlaanderen, C. NED HON 248
11 172 Boisrame, M. FRA HON 233
12 43 Evans, M. AUS HON 228
13 98 Vaessen, Bas NED KTM 219
14 747 Cervellin, M. ITA YAM 179
15 32 Van doninck, B. BEL HON 165
16 46 Pootjes, Davy NED HUS 157
17 66 Larranaga Olano, I. ESP KTM 144
18 35 Harrison, M. USA KAW 138
19 161 Östlund, Alvin SWE HUS 131
20 53 Walsh, Dylan NZL HUS 101
21 102 Sikyna, R. SVK KTM 98
22 57 Sanayei, D. USA KAW 94
23 225 Strubhart Moreau, B. FRA KAW 94
24 44 Lesiardo, M. ITA KTM 71
25 101 Pichon, Z. FRA HON 60
26 426 Mewse, Conrad GBR KTM 40
27 766 Sandner, M. AUT KTM 29
28 39 Van De Moosdijk, R. NED KAW 23
29 303 Forato, A. ITA HUS 23
30 105 Genot, Cyril BEL KTM 23
31 253 Pancar, Jan SLO YAM 22
32 56 Pessoa, G. BRA KAW 22




Curso MotoX
JPS Racing

© 2000 - 2018 MotoX MX1 Internet